• In United Kingdom
  • List of Countries
  • For 7 days
  • Water Temperature
  • Satellite Maps
  • Weather Map
  • Weather Widgets
  • user-avatar
    Login

    Hourly Weather Andora

    Today, 20 October, Friday

    Time Temperature Precipitation Wind Pressure Humidity
    00:00 +7°C° 0 mm 1 mps 622 mmHg 91%
    01:00 +7°C° 0 mm 1 mps 623 mmHg 90%
    02:00 +7°C° 0 mm 1 mps 623 mmHg 89%
    03:00 +6°C° 0 mm 1 mps 623 mmHg 88%
    04:00 +6°C° 0 mm 1 mps 623 mmHg 88%
    05:00 +6°C° 0 mm 1 mps 623 mmHg 87%
    06:00 +6°C° 0 mm 1 mps 624 mmHg 86%
    07:00 +8°C° 0 mm 1 mps 625 mmHg 80%
    08:00 +10°C° 0 mm 1 mps 626 mmHg 74%
    09:00 +11°C° 0 mm 0 mps 628 mmHg 69%
    10:00 +13°C° 0 mm 1 mps 628 mmHg 65%
    11:00 +14°C° 0 mm 1 mps 628 mmHg 62%
    12:00 +15°C° 0 mm 2 mps 629 mmHg 59%
    13:00 +15°C° 0 mm 2 mps 629 mmHg 61%
    14:00 +14°C° 0 mm 2 mps 628 mmHg 63%
    15:00 +14°C° 0 mm 2 mps 628 mmHg 65%
    16:00 +12°C° 0 mm 2 mps 628 mmHg 73%
    17:00 +10°C° 0 mm 2 mps 627 mmHg 81%
    18:00 +9°C° 0 mm 1 mps 627 mmHg 89%
    19:00 +9°C° 0 mm 1 mps 627 mmHg 88%
    20:00 +8°C° 0 mm 1 mps 627 mmHg 88%
    21:00 +8°C° 0 mm 1 mps 627 mmHg 88%
    22:00 +8°C° 0 mm 1 mps 627 mmHg 87%
    23:00 +7°C° 0 mm 1 mps 627 mmHg 86%

    Tomorrow, 21 October, Saturday

    Time Temperature Precipitation Wind Pressure Humidity
    00:00 +7°C° 0 mm 1 mps 626 mmHg 84%
    01:00 +7°C° 0 mm 1 mps 626 mmHg 83%
    02:00 +7°C° 0 mm 1 mps 626 mmHg 82%
    03:00 +7°C° 0 mm 1 mps 626 mmHg 82%
    04:00 +7°C° 0 mm 1 mps 626 mmHg 79%
    05:00 +7°C° 0 mm 1 mps 626 mmHg 77%
    06:00 +7°C° 0 mm 1 mps 626 mmHg 74%
    07:00 +9°C° 0 mm 1 mps 628 mmHg 70%
    08:00 +11°C° 0 mm 1 mps 629 mmHg 65%
    09:00 +12°C° 0 mm 1 mps 630 mmHg 61%
    10:00 +13°C° 0 mm 1 mps 630 mmHg 60%
    11:00 +14°C° 0 mm 1 mps 630 mmHg 59%
    12:00 +14°C° 0 mm 2 mps 630 mmHg 59%
    13:00 +14°C° 0.1 mm 2 mps 630 mmHg 63%
    14:00 +13°C° 0.1 mm 2 mps 629 mmHg 68%
    15:00 +12°C° 0.1 mm 2 mps 629 mmHg 73%
    16:00 +11°C° 0.2 mm 1 mps 629 mmHg 79%
    17:00 +10°C° 0.2 mm 1 mps 629 mmHg 85%
    18:00 +8°C° 0.2 mm 1 mps 629 mmHg 91%
    19:00 +8°C° 0.1 mm 1 mps 629 mmHg 92%
    20:00 +8°C° 0.1 mm 1 mps 629 mmHg 93%
    21:00 +6°C° 0.1 mm 2 mps 629 mmHg 93%
    22:00 +6°C° 0.1 mm 2 mps 629 mmHg 94%
    23:00 +7°C° 0.1 mm 1 mps 629 mmHg 94%

    Day after tomorrow, 22 October, Sunday

    Time Temperature Precipitation Wind Pressure Humidity
    00:00 +6°C° 0.1 mm 1 mps 629 mmHg 95%
    01:00 +6°C° 0 mm 1 mps 629 mmHg 94%
    02:00 +5°C° 0 mm 2 mps 628 mmHg 94%
    03:00 +4°C° 0 mm 2 mps 628 mmHg 94%
    04:00 +4°C° 0 mm 2 mps 628 mmHg 93%
    05:00 +3°C° 0 mm 2 mps 628 mmHg 91%
    06:00 +3°C° 0 mm 2 mps 628 mmHg 90%
    07:00 +4°C° 0 mm 2 mps 628 mmHg 83%
    08:00 +5°C° 0 mm 2 mps 629 mmHg 76%
    09:00 +5°C° 0 mm 3 mps 630 mmHg 69%
    10:00 +7°C° 0 mm 3 mps 630 mmHg 63%
    11:00 +8°C° 0 mm 3 mps 630 mmHg 57%
    12:00 +9°C° 0 mm 3 mps 630 mmHg 52%
    13:00 +9°C° 0 mm 3 mps 630 mmHg 52%
    14:00 +8°C° 0 mm 3 mps 629 mmHg 53%
    15:00 +8°C° 0 mm 3 mps 629 mmHg 53%
    16:00 +7°C° 0 mm 3 mps 629 mmHg 60%
    17:00 +4°C° 0 mm 3 mps 628 mmHg 68%
    18:00 +3°C° 0 mm 2 mps 628 mmHg 75%
    19:00 +3°C° 0 mm 2 mps 628 mmHg 75%
    20:00 +2°C° 0 mm 2 mps 628 mmHg 75%
    21:00 +1°C° 0 mm 3 mps 628 mmHg 75%
    22:00 +2°C° 0 mm 2 mps 628 mmHg 74%
    23:00 +2°C° 0 mm 2 mps 628 mmHg 73%

    23 October, Monday

    Time Temperature Precipitation Wind Pressure Humidity
    00:00 +1°C° 0 mm 2 mps 628 mmHg 72%
    01:00 +1°C° 0 mm 2 mps 628 mmHg 72%
    02:00 +1°C° 0 mm 2 mps 628 mmHg 71%
    03:00 +1°C° 0 mm 2 mps 628 mmHg 70%
    04:00 +1°C° 0 mm 2 mps 628 mmHg 69%
    05:00 +1°C° 0 mm 2 mps 628 mmHg 68%
    06:00 +1°C° 0 mm 2 mps 628 mmHg 67%
    07:00 +3°C° 0 mm 2 mps 629 mmHg 61%
    08:00 +5°C° 0 mm 2 mps 630 mmHg 54%
    09:00 +8°C° 0 mm 2 mps 631 mmHg 48%
    10:00 +9°C° 0 mm 2 mps 631 mmHg 46%
    11:00 +10°C° 0 mm 2 mps 632 mmHg 44%
    12:00 +13°C° 0 mm 2 mps 632 mmHg 41%
    13:00 +12°C° 0 mm 2 mps 632 mmHg 44%
    14:00 +12°C° 0 mm 2 mps 631 mmHg 46%
    15:00 +12°C° 0 mm 2 mps 631 mmHg 49%
    16:00 +9°C° 0 mm 2 mps 630 mmHg 57%
    17:00 +7°C° 0 mm 2 mps 630 mmHg 65%
    18:00 +5°C° 0 mm 2 mps 629 mmHg 73%
    19:00 +5°C° 0 mm 2 mps 629 mmHg 70%
    20:00 +5°C° 0 mm 2 mps 629 mmHg 67%
    21:00 +5°C° 0 mm 2 mps 629 mmHg 64%
    22:00 +5°C° 0 mm 2 mps 629 mmHg 62%
    23:00 +5°C° 0 mm 2 mps 629 mmHg 60%

    24 October, Tuesday

    Time Temperature Precipitation Wind Pressure Humidity
    00:00 +5°C° 0 mm 2 mps 629 mmHg 59%
    01:00 +5°C° 0 mm 2 mps 629 mmHg 59%
    02:00 +5°C° 0 mm 2 mps 629 mmHg 59%
    03:00 +5°C° 0 mm 2 mps 629 mmHg 59%
    04:00 +5°C° 0 mm 2 mps 629 mmHg 60%
    05:00 +5°C° 0 mm 2 mps 629 mmHg 60%
    06:00 +5°C° 0 mm 2 mps 629 mmHg 60%
    07:00 +9°C° 0 mm 1 mps 630 mmHg 55%
    08:00 +11°C° 0 mm 1 mps 631 mmHg 50%
    09:00 +13°C° 0 mm 1 mps 632 mmHg 45%
    10:00 +15°C° 0 mm 1 mps 632 mmHg 42%
    11:00 +16°C° 0 mm 1 mps 633 mmHg 40%
    12:00 +18°C° 0 mm 1 mps 633 mmHg 37%
    13:00 +18°C° 0 mm 1 mps 632 mmHg 39%
    14:00 +18°C° 0 mm 1 mps 632 mmHg 41%
    15:00 +16°C° 0 mm 1 mps 632 mmHg 44%
    16:00 +14°C° 0 mm 1 mps 631 mmHg 51%
    17:00 +12°C° 0 mm 1 mps 630 mmHg 58%
    18:00 +10°C° 0 mm 1 mps 629 mmHg 65%
    19:00 +10°C° 0 mm 1 mps 630 mmHg 63%
    20:00 +9°C° 0 mm 1 mps 630 mmHg 61%
    21:00 +9°C° 0 mm 1 mps 630 mmHg 59%
    22:00 +9°C° 0 mm 1 mps 630 mmHg 57%
    23:00 +9°C° 0 mm 1 mps 629 mmHg 55%

    25 October, Wednesday

    Time Temperature Precipitation Wind Pressure Humidity
    00:00 +9°C° 0 mm 1 mps 629 mmHg 53%
    01:00 +9°C° 0 mm 1 mps 629 mmHg 52%
    02:00 +9°C° 0 mm 1 mps 629 mmHg 52%
    03:00 +9°C° 0 mm 1 mps 629 mmHg 51%
    04:00 +8°C° 0 mm 1 mps 629 mmHg 50%
    05:00 +8°C° 0 mm 1 mps 629 mmHg 50%
    06:00 +8°C° 0 mm 1 mps 629 mmHg 50%
    07:00 +11°C° 0 mm 1 mps 630 mmHg 46%
    08:00 +13°C° 0 mm 1 mps 631 mmHg 43%
    09:00 +15°C° 0 mm 0 mps 632 mmHg 39%
    10:00 +18°C° 0 mm 1 mps 632 mmHg 37%
    11:00 +19°C° 0 mm 1 mps 633 mmHg 36%
    12:00 +20°C° 0 mm 1 mps 633 mmHg 34%
    13:00 +20°C° 0 mm 1 mps 633 mmHg 37%
    14:00 +19°C° 0 mm 1 mps 632 mmHg 39%
    15:00 +19°C° 0 mm 1 mps 632 mmHg 42%
    16:00 +15°C° 0 mm 1 mps 631 mmHg 51%
    17:00 +13°C° 0 mm 1 mps 631 mmHg 60%
    18:00 +10°C° 0 mm 1 mps 630 mmHg 69%
    19:00 +10°C° 0 mm 1 mps 630 mmHg 70%
    20:00 +9°C° 0 mm 1 mps 630 mmHg 71%
    21:00 +9°C° 0 mm 1 mps 630 mmHg 72%
    22:00 +9°C° 0 mm 1 mps 630 mmHg 72%
    23:00 +9°C° 0 mm 1 mps 630 mmHg 72%
    Show more